KIRKWALL_AIRPORT current weather conditions

sailwx.info

Wind from 020 at 12 knots

Air temperature 5.0° C
Visibility: greater than 5.4 NM
Dewpoint -1.0° C

Last reported at 2017-Feb-23 14:50 UTC.
Time now 2017-Feb-23 16:17 UTC

Location: N 58°57' W 002°54'.
View on Google Maps.

See reports from other nearby stations

  
Tides and Currents Weather Stations Pressure Air Temp Water Temp Dewpoint Dewpoint Depression Visibility Wind Speed Wind Dir Waves Ship Positions
date/time (UTC)wind fromknots sea level pressurealtimeterstation pressurevisibilityair tempwater tempwave heightnotes
2017-Feb-23 15:20 010 12 5.4 4.0
2017-Feb-23 14:50 020 12 5.4 5.0
2017-Feb-23 14:20 010 11 5.4 5.0
2017-Feb-23 13:50 020 12 5.4 5.0
2017-Feb-23 13:20 030 12 5.4 5.0
2017-Feb-23 12:50 020 13 5.4 5.0
2017-Feb-23 12:20 020 13 5.4 5.0
2017-Feb-23 11:50 030 13 5.4 5.0
2017-Feb-23 11:20 020 12 5.4 5.0
2017-Feb-23 10:50 030 11 5.4 5.0
2017-Feb-23 10:20 040 11 5.4 5.0
2017-Feb-23 09:50 040 13 5.4 4.0
2017-Feb-23 09:20 040 13 5.4 4.0
2017-Feb-23 08:50 050 11 5.4 4.0
2017-Feb-23 08:20 060 12 5.4 4.0
2017-Feb-23 07:50 060 13 5.4 4.0
2017-Feb-23 07:20 060 13 5.4 4.0
2017-Feb-23 06:50 070 12 5.4 4.0
2017-Feb-23 06:20 070 12 5.4 4.0
2017-Feb-23 05:50 080 12 5.4 4.0
2017-Feb-23 05:20 080 12 5.4 4.0
2017-Feb-23 04:50 080 11 5.4 4.0
2017-Feb-23 04:20 100 7 5.4 4.0
2017-Feb-23 03:50 080 8 5.4 4.0
2017-Feb-23 03:20 070 9 5.4 4.0
2017-Feb-23 02:50 080 6 5.4 3.0
2017-Feb-23 02:20 080 4 5.4 3.0
2017-Feb-23 01:50 060 5 5.4 3.0
2017-Feb-23 01:20 080 2 5.4 2.0
2017-Feb-23 00:50 070 1 5.4 2.0
2017-Feb-23 00:20 5.4 3.0
2017-Feb-22 23:50 5.4 2.0
2017-Feb-22 23:20 320 4 5.4 3.0
2017-Feb-22 22:50 060 2 5.4 3.0
2017-Feb-22 22:20 350 4 4.3 4.0 Light drizzle.
2017-Feb-22 21:50 260 2 5.4 3.0
2017-Feb-22 21:20 250 5 5.4 2.0
2017-Feb-22 20:50 270 5 5.4 3.0
2017-Feb-22 20:20 300 5 5.4 4.0
2017-Feb-22 19:50 300 7 5.4 4.0
2017-Feb-22 19:20 300 8 5.4 5.0 Light rain showers.
2017-Feb-22 18:50 300 9 5.4 5.0 Showers in the vicinity.
2017-Feb-22 18:20 320 22 5.4 5.0 Light rain showers.
2017-Feb-22 17:50 300 13 5.4 5.0
2017-Feb-22 17:20 300 17 5.4 5.0 Light rain showers.
2017-Feb-22 16:50 300 17 5.4 5.0 Showers in the vicinity.
2017-Feb-22 16:20 300 21 5.4 5.0 Light rain showers.
2017-Feb-22 15:50 310 22 5.4 6.0 Light rain showers.
2017-Feb-22 15:20 300 24 5.4 7.0 Showers in the vicinity.
2017-Feb-22 14:50 300 24 5.4 6.0
2017-Feb-22 14:20 300 21 5.4 6.0 Showers in the vicinity.
2017-Feb-22 13:50 300 27 5.4 8.0 Light rain showers.
2017-Feb-22 13:20 300 32 gusting 42 5.4 7.0 Light rain showers.
2017-Feb-22 12:50 290 28 gusting 40 5.4 7.0 Showers in the vicinity.
2017-Feb-22 12:20 290 27 gusting 41 5.4 7.0 Showers in the vicinity.
2017-Feb-22 11:50 280 29 gusting 45 5.4 7.0 Showers in the vicinity.
2017-Feb-22 11:20 280 29 gusting 41 5.4 5.0 Light rain showers. Small hail/snow pellets.
2017-Feb-22 10:50 290 36 gusting 49 4.3 5.0 Rain showers. Small hail/snow pellets.
2017-Feb-22 10:20 280 40 gusting 53 4.3 6.0 Light rain showers. Small hail/snow pellets.
2017-Feb-22 09:50 280 36 gusting 52 4.3 7.0 Light rain showers. Small hail/snow pellets.
2017-Feb-22 09:20 280 44 gusting 56 4.9 6.0 Light rain showers. Small hail/snow pellets.
2017-Feb-22 08:50 270 38 5.4 6.0 Light rain showers. Small hail/snow pellets.
2017-Feb-22 08:20 280 34 gusting 46 4.3 6.0 Light rain showers. Small hail/snow pellets.
2017-Feb-22 07:50 270 38 gusting 55 4.9 7.0 Light rain showers.
2017-Feb-22 07:20 270 34 gusting 51 4.9 7.0 Light rain showers.
2017-Feb-22 06:50 270 34 gusting 58 5.4 7.0 Light rain showers.
2017-Feb-22 06:20 270 35 gusting 47 5.4 7.0
2017-Feb-22 05:50 270 32 gusting 48 4.9 6.0
2017-Feb-22 05:20 260 35 gusting 51 5.4 6.0
2017-Feb-22 04:50 270 36 gusting 48 4.9 6.0
2017-Feb-22 04:20 260 31 gusting 44 4.9 6.0
2017-Feb-22 03:50 260 32 gusting 47 3.8 7.0
2017-Feb-22 03:20 260 32 gusting 42 4.9 6.0
2017-Feb-22 02:50 260 33 gusting 44 5.4 6.0
2017-Feb-22 02:20 260 29 gusting 41 5.4 6.0
2017-Feb-22 01:50 250 28 gusting 59 5.4 5.0
2017-Feb-22 01:20 260 29 gusting 42 5.4 6.0
2017-Feb-22 00:50 260 28 gusting 39 5.4 6.0
2017-Feb-22 00:20 260 34 gusting 48 5.4 6.0
2017-Feb-21 23:50 250 27 gusting 40 5.4 7.0
2017-Feb-21 23:20 260 24 gusting 41 5.4 6.0
2017-Feb-21 22:50 260 27 gusting 38 4.9 6.0
2017-Feb-21 22:20 260 25 gusting 36 5.4 6.0
2017-Feb-21 21:50 270 27 gusting 38 5.4 7.0
2017-Feb-21 21:20 270 24 gusting 34 5.4 6.0 Showers in the vicinity.
2017-Feb-21 20:50 270 17 5.4 6.0 Showers in the vicinity.
2017-Feb-21 20:20 260 20 gusting 31 5.4 7.0
2017-Feb-21 19:50 260 15 5.4 7.0
2017-Feb-21 19:20 260 20 gusting 32 3.8 7.0 Rain.
2017-Feb-21 18:50 270 21 4.3 7.0 Rain.
2017-Feb-21 18:20 220 17 gusting 27 4.3 9.0 Rain.
2017-Feb-21 17:50 200 13 5.4 9.0 Light rain.
2017-Feb-21 17:20 210 13 5.4 9.0 Light rain.
2017-Feb-21 16:50 210 13 5.4 9.0 Light rain.
2017-Feb-21 16:20 210 14 4.9 9.0 Rain.